Guatemala, Guatemala

3:38 AM CST on October 20, 2018 (GMT -0600)
La Aurora International

Weather History for MGGT - February, 2018

Change the Weather History Date:

Wednesday, February 14, 2018

  Actual Average Record
Temperature  
Mean Temperature 64 °F -  
Max Temperature 71 °F 75 °F 82 °F (2000)
Min Temperature 57 °F 55 °F 32 °F (2017)
Degree Days  
Heating Degree Days 1    
Growing Degree Days 14 (Base 50)    
Moisture  
Dew Point 54 °F    
Average Humidity 74    
Maximum Humidity 94    
Minimum Humidity 53    
Precipitation  
Precipitation 0.00 in - - ()
Sea Level Pressure  
Sea Level Pressure 30.37 in    
Wind  
Wind Speed 29 mph ()    
Max Wind Speed 94 mph    
Max Gust Speed -    
Visibility 5.7 miles    
Events Snow    
Averages and records for this station are not official NWS values.
T = Trace of Precipitation, MM = Missing Value Source: Averaged Metar Reports

Daily Weather History Graph

Daily Weather History Graph

Search for Another Location

Airport or City:

Astronomy

Feb. 14, 2018 Rise Set
Actual Time 6:26 AM CST 6:06 PM CST
Civil Twilight 6:04 AM CST 6:28 PM CST
Nautical Twilight 5:39 AM CST 6:53 PM CST
Astronomical Twilight 5:14 AM CST 7:18 PM CST
Moon 5:33 AM CST (2/14) 5:19 PM CST (2/14)
Length of Visible Light 12h 23m
Length of Day
11h 39m
Waning Crescent, 1% of the Moon is Illuminated
Feb 14
Waning Crescent
Feb 15
New
Feb 23
First Quarter
Mar 1
Full
Mar 9
Last Quarter

Hourly Weather History & Observations

Time (CST) Temp. Dew Point Humidity Pressure Visibility Wind Dir Wind Speed Gust Speed Precip Events Conditions
12:00 AM - - %  in 6 mi WSW 94.4 mph - - Snow Low Drifting Snow
12:00 AM 60.8 °F 57.2 °F 88% 30.39 in 6.2 mi North 20.7 mph - N/A   Mostly Cloudy
1:00 AM 59.0 °F 57.2 °F 94% 30.36 in 6.2 mi North 20.7 mph - N/A   Mostly Cloudy
2:00 AM 59.0 °F 57.2 °F 94% 30.36 in 6.2 mi North 18.4 mph - N/A   Mostly Cloudy
3:00 AM 59.0 °F 57.2 °F 94% 30.36 in 6.2 mi North 20.7 mph - N/A   Scattered Clouds
4:00 AM 59.0 °F 57.2 °F 94% 30.33 in 6.2 mi North 20.7 mph - N/A   Scattered Clouds
5:00 AM 57.2 °F 53.6 °F 88% 30.36 in - North 18.4 mph - N/A   Clear
6:00 AM - - %  in 1 mi WNW 94.4 mph - -  
6:00 AM 57.2 °F 53.6 °F 88% 30.36 in - North 18.4 mph - N/A   Clear
7:00 AM 57.2 °F 50.0 °F 77% 30.39 in 6.2 mi North 9.2 mph - N/A   Partly Cloudy
8:00 AM 60.8 °F 50.0 °F 68% 30.42 in 6.2 mi North 16.1 mph - N/A   Partly Cloudy
9:00 AM 62.6 °F 57.2 °F 82% 30.45 in 6.2 mi North 16.1 mph - N/A   Scattered Clouds
10:00 AM 64.4 °F 51.8 °F 64% 30.45 in 6.2 mi North 18.4 mph - N/A   Scattered Clouds
11:00 AM 66.2 °F 51.8 °F 60% 30.42 in 6.2 mi North 18.4 mph - N/A   Scattered Clouds
12:00 PM 64.4 °F 51.8 °F 64% 30.42 in 6.2 mi North 18.4 mph - N/A   Mostly Cloudy
1:00 PM 68.0 °F 53.6 °F 60% 30.39 in 6.2 mi North 18.4 mph - N/A   Mostly Cloudy
2:00 PM 71.6 °F 53.6 °F 53% 30.36 in 6.2 mi North 18.4 mph - N/A   Scattered Clouds
3:00 PM 71.6 °F 53.6 °F 53% 30.33 in 6.2 mi NW 18.4 mph - N/A   Mostly Cloudy
4:00 PM 71.6 °F 55.4 °F 57% 30.33 in 6.2 mi North 13.8 mph - N/A   Mostly Cloudy
5:00 PM 69.8 °F 55.4 °F 60% 30.30 in 6.2 mi NNW 18.4 mph - N/A   Mostly Cloudy
6:00 PM - - %  in 0 mi WSW 94.4 mph - -   Partly Cloudy
6:00 PM 66.2 °F 55.4 °F 68% 30.33 in 6.2 mi North 20.7 mph - N/A   Overcast
7:00 PM 62.6 °F 53.6 °F 72% 30.33 in 6.2 mi North 18.4 mph - N/A   Mostly Cloudy
8:00 PM 60.8 °F 53.6 °F 77% 30.36 in 6.2 mi North 20.7 mph - N/A   Scattered Clouds
9:00 PM 60.8 °F 51.8 °F 72% 30.39 in 6.2 mi North 20.7 mph - N/A   Partly Cloudy
10:00 PM 59.0 °F 51.8 °F 77% 30.39 in 6.2 mi North 18.4 mph - N/A   Partly Cloudy
11:00 PM 59.0 °F 53.6 °F 82% 30.39 in 6.2 mi North 18.4 mph - N/A   Mostly Cloudy